Hourly Weather Golczewo

Today, 17 May, Monday

Time Temperature Precipitation Wind Pressure Humidity
00:00 +9°C° 0 mm 3 mps 733 mmHg 85%
01:00 +9°C° 0 mm 3 mps 733 mmHg 88%
02:00 +9°C° 0.1 mm 3 mps 733 mmHg 89%
03:00 +9°C° 0.1 mm 3 mps 732 mmHg 90%
04:00 +9°C° 0.1 mm 3 mps 732 mmHg 91%
05:00 +10°C° 0 mm 3 mps 732 mmHg 87%
06:00 +12°C° 0 mm 3 mps 732 mmHg 82%
07:00 +14°C° 0 mm 3 mps 732 mmHg 78%
08:00 +14°C° 0.3 mm 4 mps 732 mmHg 75%
09:00 +15°C° 0.3 mm 4 mps 733 mmHg 73%
10:00 +15°C° 0.3 mm 5 mps 733 mmHg 70%
11:00 +15°C° 0.2 mm 4 mps 733 mmHg 73%
12:00 +14°C° 0.2 mm 3 mps 733 mmHg 75%
13:00 +14°C° 0.2 mm 3 mps 733 mmHg 77%
14:00 +14°C° 0.7 mm 2 mps 733 mmHg 82%
15:00 +13°C° 0.7 mm 2 mps 733 mmHg 87%
16:00 +12°C° 0.7 mm 2 mps 733 mmHg 92%
17:00 +12°C° 1.2 mm 2 mps 733 mmHg 93%
18:00 +12°C° 1.2 mm 2 mps 733 mmHg 95%
19:00 +10°C° 1.2 mm 2 mps 733 mmHg 97%
20:00 +10°C° 2.1 mm 2 mps 733 mmHg 97%
21:00 +10°C° 2.1 mm 2 mps 733 mmHg 97%
22:00 +10°C° 2.1 mm 2 mps 733 mmHg 97%
23:00 +10°C° 1.1 mm 2 mps 733 mmHg 97%

Tomorrow, 18 May, Tuesday

Time Temperature Precipitation Wind Pressure Humidity
00:00 +10°C° 1.1 mm 2 mps 733 mmHg 97%
01:00 +10°C° 1.1 mm 3 mps 733 mmHg 96%
02:00 +10°C° 0.9 mm 4 mps 734 mmHg 96%
03:00 +9°C° 0.9 mm 5 mps 734 mmHg 96%
04:00 +8°C° 0.9 mm 5 mps 734 mmHg 96%
05:00 +8°C° 0.7 mm 6 mps 734 mmHg 95%
06:00 +8°C° 0.7 mm 6 mps 735 mmHg 94%
07:00 +8°C° 0.7 mm 6 mps 735 mmHg 93%
08:00 +9°C° 0.1 mm 6 mps 735 mmHg 90%
09:00 +10°C° 0.1 mm 6 mps 736 mmHg 87%
10:00 +10°C° 0.1 mm 6 mps 736 mmHg 84%
11:00 +11°C° 0.2 mm 6 mps 736 mmHg 80%
12:00 +13°C° 0.2 mm 6 mps 736 mmHg 76%
13:00 +14°C° 0.2 mm 7 mps 736 mmHg 71%
14:00 +14°C° 0.1 mm 6 mps 736 mmHg 71%
15:00 +14°C° 0.1 mm 5 mps 736 mmHg 70%
16:00 +14°C° 0.1 mm 5 mps 736 mmHg 70%
17:00 +13°C° 0.1 mm 4 mps 736 mmHg 74%
18:00 +12°C° 0.1 mm 4 mps 737 mmHg 78%
19:00 +12°C° 0.1 mm 3 mps 737 mmHg 82%
20:00 +11°C° 0 mm 3 mps 737 mmHg 85%
21:00 +10°C° 0 mm 3 mps 737 mmHg 89%
22:00 +9°C° 0 mm 3 mps 737 mmHg 92%
23:00 +8°C° 0 mm 3 mps 737 mmHg 93%

Day after tomorrow, 19 May, Wednesday

Time Temperature Precipitation Wind Pressure Humidity
00:00 +7°C° 0 mm 4 mps 738 mmHg 94%
01:00 +7°C° 0 mm 4 mps 738 mmHg 95%
02:00 +6°C° 0 mm 4 mps 738 mmHg 96%
03:00 +6°C° 0 mm 4 mps 738 mmHg 96%
04:00 +6°C° 0 mm 4 mps 738 mmHg 97%
05:00 +7°C° 0 mm 4 mps 738 mmHg 93%
06:00 +8°C° 0 mm 5 mps 739 mmHg 88%
07:00 +9°C° 0 mm 5 mps 739 mmHg 84%
08:00 +10°C° 0 mm 5 mps 739 mmHg 79%
09:00 +10°C° 0 mm 5 mps 739 mmHg 75%
10:00 +12°C° 0 mm 5 mps 739 mmHg 71%
11:00 +13°C° 0 mm 5 mps 739 mmHg 68%
12:00 +13°C° 0 mm 5 mps 739 mmHg 65%
13:00 +14°C° 0 mm 5 mps 739 mmHg 62%
14:00 +14°C° 0 mm 5 mps 739 mmHg 64%
15:00 +13°C° 0 mm 5 mps 739 mmHg 66%
16:00 +13°C° 0 mm 5 mps 739 mmHg 68%
17:00 +12°C° 0.1 mm 5 mps 739 mmHg 74%
18:00 +11°C° 0.1 mm 4 mps 739 mmHg 80%
19:00 +10°C° 0.1 mm 4 mps 739 mmHg 86%
20:00 +10°C° 0 mm 4 mps 740 mmHg 89%
21:00 +8°C° 0 mm 4 mps 740 mmHg 92%
22:00 +8°C° 0 mm 4 mps 740 mmHg 95%
23:00 +8°C° 0 mm 4 mps 740 mmHg 95%

20 May, Thursday

Time Temperature Precipitation Wind Pressure Humidity
00:00 +7°C° 0 mm 4 mps 740 mmHg 95%
01:00 +7°C° 0 mm 5 mps 740 mmHg 95%
02:00 +7°C° 0.1 mm 4 mps 740 mmHg 94%
03:00 +7°C° 0.1 mm 4 mps 740 mmHg 94%
04:00 +7°C° 0.1 mm 4 mps 740 mmHg 94%
05:00 +7°C° 0.1 mm 4 mps 741 mmHg 92%
06:00 +7°C° 0.1 mm 4 mps 741 mmHg 90%
07:00 +7°C° 0.1 mm 4 mps 741 mmHg 87%
08:00 +8°C° 0 mm 5 mps 741 mmHg 79%
09:00 +10°C° 0 mm 6 mps 741 mmHg 71%
10:00 +11°C° 0 mm 6 mps 741 mmHg 62%
11:00 +13°C° 0 mm 6 mps 741 mmHg 60%
12:00 +14°C° 0 mm 6 mps 741 mmHg 58%
13:00 +15°C° 0 mm 6 mps 741 mmHg 56%
14:00 +14°C° 0.2 mm 6 mps 741 mmHg 61%
15:00 +14°C° 0.2 mm 6 mps 741 mmHg 67%
16:00 +13°C° 0.2 mm 6 mps 741 mmHg 73%
17:00 +11°C° 0.3 mm 6 mps 741 mmHg 76%
18:00 +10°C° 0.3 mm 5 mps 742 mmHg 80%
19:00 +10°C° 0.3 mm 4 mps 742 mmHg 83%
20:00 +10°C° 0 mm 4 mps 742 mmHg 86%
21:00 +8°C° 0 mm 4 mps 743 mmHg 89%
22:00 +7°C° 0 mm 4 mps 743 mmHg 92%
23:00 +6°C° 0 mm 4 mps 743 mmHg 93%

21 May, Friday

Time Temperature Precipitation Wind Pressure Humidity
00:00 +6°C° 0 mm 4 mps 743 mmHg 94%
01:00 +5°C° 0 mm 4 mps 744 mmHg 95%
02:00 +4°C° 0 mm 3 mps 744 mmHg 95%
03:00 +4°C° 0 mm 3 mps 744 mmHg 95%
04:00 +3°C° 0 mm 3 mps 744 mmHg 96%
05:00 +5°C° 0 mm 4 mps 744 mmHg 91%
06:00 +6°C° 0 mm 4 mps 744 mmHg 86%
07:00 +7°C° 0 mm 5 mps 744 mmHg 81%
08:00 +8°C° 0 mm 5 mps 744 mmHg 76%
09:00 +9°C° 0 mm 5 mps 744 mmHg 70%
10:00 +10°C° 0 mm 5 mps 744 mmHg 65%
11:00 +10°C° 0 mm 5 mps 744 mmHg 65%
12:00 +11°C° 0 mm 4 mps 743 mmHg 64%
13:00 +12°C° 0 mm 4 mps 743 mmHg 64%
14:00 +12°C° 0 mm 4 mps 743 mmHg 63%
15:00 +13°C° 0 mm 3 mps 743 mmHg 62%
16:00 +13°C° 0 mm 3 mps 742 mmHg 61%
17:00 +13°C° 0 mm 3 mps 742 mmHg 65%
18:00 +13°C° 0 mm 2 mps 741 mmHg 70%
19:00 +12°C° 0 mm 2 mps 741 mmHg 74%
20:00 +12°C° 0 mm 2 mps 741 mmHg 74%
21:00 +10°C° 0 mm 3 mps 741 mmHg 75%
22:00 +10°C° 0 mm 3 mps 741 mmHg 75%
23:00 +10°C° 0 mm 3 mps 740 mmHg 75%

22 May, Saturday

Time Temperature Precipitation Wind Pressure Humidity
00:00 +10°C° 0 mm 3 mps 740 mmHg 75%
01:00 +10°C° 0 mm 4 mps 740 mmHg 75%
02:00 +8°C° 0 mm 4 mps 739 mmHg 75%
03:00 +9°C° 0 mm 3 mps 739 mmHg 76%
04:00 +8°C° 0 mm 3 mps 739 mmHg 77%
05:00 +10°C° 0 mm 4 mps 738 mmHg 73%
06:00 +12°C° 0 mm 5 mps 738 mmHg 68%
07:00 +13°C° 0 mm 6 mps 738 mmHg 64%
08:00 +14°C° 0 mm 6 mps 738 mmHg 61%
09:00 +16°C° 0 mm 7 mps 738 mmHg 58%
10:00 +17°C° 0 mm 7 mps 738 mmHg 54%
11:00 +18°C° 0 mm 7 mps 738 mmHg 54%
12:00 +19°C° 0 mm 6 mps 738 mmHg 53%
13:00 +20°C° 0 mm 6 mps 738 mmHg 53%
14:00 +19°C° 0.1 mm 5 mps 738 mmHg 57%
15:00 +17°C° 0.1 mm 5 mps 738 mmHg 61%
16:00 +17°C° 0.1 mm 4 mps 738 mmHg 66%
17:00 +15°C° 0.2 mm 4 mps 738 mmHg 73%
18:00 +13°C° 0.2 mm 4 mps 738 mmHg 80%
19:00 +12°C° 0.2 mm 3 mps 738 mmHg 88%
20:00 +12°C° 0.6 mm 3 mps 738 mmHg 90%
21:00 +12°C° 0.6 mm 2 mps 739 mmHg 92%
22:00 +12°C° 0.6 mm 2 mps 739 mmHg 94%
23:00 +11°C° 0.8 mm 1 mps 739 mmHg 94%
Show more